{"data":{"norad_id":64956,"intl_designator":"2025-159A","name":"HULIANWANG DIGUI-35","alt_names":[],"object_type":"PAYLOAD","status":"ACTIVE","operator":null,"country":"PRC","launch_date":"2025-07-27","launch_site_code":"TAISC","launch_vehicle":null,"mission":null,"orbit_class":"UNKNOWN","rcs_meters":null,"size_class":null,"mass_kg":null,"dimensions":null,"purposes":[],"wikipedia_slug":null,"has_3d_model":false,"image_url":null,"decayed_at":null,"tle_current":{"epoch":"2026-05-25T03:17:40.502976Z","epoch_age_seconds":60248,"freshness":"FRESH","line1":"1 64956U 25159A   26145.13727434  .00000050  00000+0  82319-4 0  9992","line2":"2 64956  86.4924 290.2207 0001983  91.6388 268.4973 13.24413785 40071","mean_motion":13.24413785,"eccentricity":0.0001983,"inclination_deg":86.4924,"raan_deg":290.2207,"arg_perigee_deg":91.6388,"mean_anomaly_deg":268.4973,"bstar":8.2319e-5,"rev_number":4007,"period_min":108.72734913432,"perigee_km":1166.4114278395,"apogee_km":1169.4041892105,"semimajor_km":7546.044808525,"source":"CELESTRAK","updated_at":"2026-05-25T13:38:04.940852Z"}}}